Volver al catálogo

FENGYUN 1C DEB

ActivoSSO
NORAD 35165·DEBRIS·🇨🇳 China

Lanzado May 10, 1999 desde Taiyuan Satellite Launch Center

Loading…

Próximos Pases (próximas 24 horas)

TLE

ActualizadoSource: Space-Track

Época: Sep 13, 2026, 05:43 UTC

1 35165U 99025DMV 26256.23873390  .00002838  00000-0  98443-3 0  9993
2 35165  98.8770   0.8411 0018745 331.8992  28.1180 14.36311579936586

Sigue FENGYUN 1C DEB en tiempo real con AllMySat

Download on the App Store